Simultaneous Nadir Overpasses (SNOs) Predictions

Prediction of SNOs between GOES-17 and AQUA Satellite Orbit:

Table of predicted SNOs for the next 14.0 days since TLE Epoch: 1/28/2023
Index Date Time (GOES-17) GOES-17 Lat,Lon AQUA Lat,Lon Distance(km) Time Diff (sec)
1 01/29/2023 09:21:32 0.01,-117.21 -0.68,-114.07 356.98 80
2 01/29/2023 21:39:57 -0.02,-116.61 -0.54,-119.17 290.10 80
3 01/31/2023 09:08:11 0.02,-114.88 -0.86,-110.75 469.96 80
4 01/31/2023 21:26:36 -0.02,-114.28 -0.35,-115.84 177.14 80
5 02/02/2023 21:13:15 -0.02,-111.95 -0.12,-112.52 64.16 80
6 02/04/2023 21:02:34 -0.02,-109.62 0.08,-109.19 48.94 80
7 02/06/2023 20:49:11 -0.02,-107.29 0.27,-105.86 162.58 80
8 02/07/2023 09:07:27 0.03,-106.69 0.95,-110.91 480.95 80
9 02/08/2023 20:35:48 -0.02,-104.96 0.50,-102.53 276.70 80
10 02/09/2023 08:54:04 0.03,-104.36 0.71,-107.58 366.70 80
11 02/10/2023 20:22:24 -0.02,-102.63 0.70, -99.19 391.16 80
